Simultaneous Nadir Overpasses (SNOs) Predictions

Prediction of SNOs between GOES-16 and METOP-B Satellite Orbit:

Table of predicted SNOs for the next 14.0 days since TLE Epoch: 5/7/2022
Index Date Time (GOES-16) GOES-16 Lat,Lon METOP-B Lat,Lon Distance(km) Time Diff (sec)
1 05/07/2022 14:41:38 0.05, -75.20 0.72, -78.10 330.30 80
2 05/08/2022 14:23:38 0.05, -75.21 -0.41, -73.10 239.52 80
3 05/10/2022 02:42:38 -0.05, -75.20 -0.63, -77.69 284.35 80
4 05/11/2022 02:19:18 -0.05, -75.21 0.51, -72.70 285.90 80
5 05/12/2022 14:38:09 0.04, -75.24 0.48, -77.27 230.37 80
6 05/13/2022 14:20:09 0.04, -75.25 -0.61, -72.26 340.27 80
7 05/15/2022 02:39:09 -0.04, -75.26 -0.37, -76.87 182.65 80
8 05/16/2022 02:15:49 -0.04, -75.27 0.71, -71.86 387.97 80
9 05/17/2022 14:34:40 0.04, -75.30 0.26, -76.43 128.13 80
10 05/18/2022 14:16:40 0.03, -75.31 -0.83, -71.43 442.53 80
11 05/20/2022 02:35:39 -0.02, -75.32 -0.20, -76.02 80.23 80
12 05/21/2022 02:12:20 -0.02, -75.33 0.95, -71.03 490.71 80
